"read_dt","SO2 (ppb)","flags","PMT voltage (V)","lamp voltage (V)","lamp intensity (Hz)","internal temp (C)","react chamber temp (C)","sample flow (l/min)","pres (mmHg)","SO2 bkg (ppb)","SO2 coefficient"
2013-08-30 00:00:00,7198E-4,5C000000,-0724,0936,11188,027.9,045.3,0.391,734.4,01.18,0.508
2013-08-30 00:01:00,7725E-4,5C000000,-0724,0935,10955,027.9,045.3,0.391,734.5,01.18,0.508
2013-08-30 00:02:00,7126E-4,5C000000,-0724,0937,11236,027.8,045.4,0.392,734.5,01.18,0.508
2013-08-30 00:03:00,6929E-4,5C000000,-0724,0936,11096,027.8,045.3,0.391,734.4,01.18,0.508
2013-08-30 00:04:00,7997E-4,5C000000,-0724,0936,11224,027.8,045.3,0.391,734.5,01.18,0.508
2013-08-30 00:05:00,7881E-4,5C000000,-0724,0936,11274,027.7,045.3,0.392,734.5,01.18,0.508
2013-08-30 00:06:00,9374E-4,5C000000,-0724,0935,10933,027.7,045.3,0.391,734.5,01.18,0.508
2013-08-30 00:07:00,7852E-4,5C000000,-0724,0936,11094,027.7,045.3,0.391,734.5,01.18,0.508
2013-08-30 00:08:00,8302E-4,5C000000,-0724,0936,11100,027.6,045.3,0.392,734.5,01.18,0.508
2013-08-30 00:09:00,8925E-4,5C000000,-0724,0936,11115,027.6,045.3,0.392,734.5,01.18,0.508
2013-08-30 00:10:00,8941E-4,5C000000,-0724,0936,11175,027.5,045.3,0.391,734.5,01.18,0.508
2013-08-30 00:11:00,8521E-4,5C000000,-0724,0936,11184,027.5,045.3,0.392,734.5,01.18,0.508
2013-08-30 00:12:00,9464E-4,5C000000,-0724,0936,11143,027.5,045.4,0.392,734.5,01.18,0.508
2013-08-30 00:13:00,8781E-4,5C000000,-0724,0936,11238,027.6,045.3,0.392,734.4,01.18,0.508
2013-08-30 00:14:00,9637E-4,5C000000,-0724,0936,11138,027.6,045.3,0.391,734.4,01.18,0.508
2013-08-30 00:15:00,9174E-4,5C000000,-0724,0936,11233,027.6,045.3,0.391,734.4,01.18,0.508
2013-08-30 00:16:00,9692E-4,5C000000,-0724,0936,11210,027.6,045.3,0.392,734.4,01.18,0.508
2013-08-30 00:17:00,1063E-3,5C000000,-0724,0936,11144,027.6,045.3,0.392,734.4,01.18,0.508
2013-08-30 00:18:00,9196E-4,5C000000,-0724,0935,11205,027.6,045.3,0.392,734.4,01.18,0.508
2013-08-30 00:19:00,1058E-3,5C000000,-0724,0936,11076,027.6,045.3,0.392,734.4,01.18,0.508
2013-08-30 00:20:00,1007E-3,5C000000,-0724,0937,11134,027.6,045.3,0.392,734.4,01.18,0.508
2013-08-30 00:21:00,1055E-3,5C000000,-0724,0937,11159,027.7,045.3,0.391,734.4,01.18,0.508
2013-08-30 00:22:00,1197E-3,5C000000,-0724,0936,11070,027.7,045.3,0.391,734.4,01.18,0.508
2013-08-30 00:23:00,1168E-3,5C000000,-0724,0936,11196,027.7,045.3,0.391,734.4,01.18,0.508
2013-08-30 00:24:00,1117E-3,5C000000,-0724,0935,11087,027.7,045.3,0.391,734.4,01.18,0.508
2013-08-30 00:25:00,1229E-3,5C000000,-0724,0937,11004,027.7,045.3,0.392,734.4,01.18,0.508
2013-08-30 00:26:00,1116E-3,5C000000,-0724,0937,11021,027.7,045.3,0.392,734.4,01.18,0.508
2013-08-30 00:27:00,1223E-3,5C000000,-0724,0937,11147,027.7,045.3,0.391,734.4,01.18,0.508
2013-08-30 00:28:00,1160E-3,5C000000,-0724,0937,11234,027.7,045.3,0.391,734.4,01.18,0.508
2013-08-30 00:29:00,1269E-3,5C000000,-0724,0936,11252,027.6,045.3,0.392,734.4,01.18,0.508
2013-08-30 00:30:00,1064E-3,5C000000,-0724,0936,11120,027.6,045.3,0.392,734.4,01.18,0.508
2013-08-30 00:31:00,7918E-4,5C000000,-0724,0936,11137,027.6,045.4,0.392,734.4,01.18,0.508
2013-08-30 00:32:00,9703E-4,5C000000,-0724,0936,10960,027.6,045.3,0.391,734.3,01.18,0.508
2013-08-30 00:33:00,1110E-3,5C000000,-0724,0937,11112,027.6,045.3,0.392,734.3,01.18,0.508
2013-08-30 00:34:00,1127E-3,5C000000,-0724,0936,11029,027.6,045.3,0.392,734.4,01.18,0.508
2013-08-30 00:35:00,1100E-3,5C000000,-0724,0936,11032,027.6,045.3,0.392,734.4,01.18,0.508
2013-08-30 00:36:00,9273E-4,5C000000,-0724,0936,11235,027.6,045.3,0.391,734.4,01.18,0.508
2013-08-30 00:37:00,1030E-3,5C000000,-0724,0935,11162,027.6,045.3,0.391,734.3,01.18,0.508
2013-08-30 00:38:00,1114E-3,5C000000,-0724,0936,11099,027.6,045.3,0.392,734.3,01.18,0.508
2013-08-30 00:39:00,1217E-3,5C000000,-0724,0939,11164,027.6,045.4,0.392,734.3,01.18,0.508
2013-08-30 00:40:00,1046E-3,5C000000,-0724,0936,11220,027.6,045.3,0.392,734.3,01.18,0.508
2013-08-30 00:41:00,1101E-3,5C000000,-0724,0937,11222,027.6,045.3,0.392,734.3,01.18,0.508
2013-08-30 00:42:00,1293E-3,5C000000,-0724,0936,11187,027.6,045.3,0.391,734.3,01.18,0.508
2013-08-30 00:43:00,1210E-3,5C000000,-0724,0936,11089,027.6,045.3,0.391,734.3,01.18,0.508
2013-08-30 00:44:00,1285E-3,5C000000,-0724,0937,11140,027.6,045.3,0.392,734.3,01.18,0.508
2013-08-30 00:45:00,1196E-3,5C000000,-0724,0937,11116,027.6,045.3,0.392,734.3,01.18,0.508
2013-08-30 00:46:00,1222E-3,5C000000,-0724,0936,11092,027.6,045.3,0.392,734.3,01.18,0.508
2013-08-30 00:47:00,1143E-3,5C000000,-0724,0936,11058,027.6,045.3,0.391,734.3,01.18,0.508
2013-08-30 00:48:00,1338E-3,5C000000,-0724,0937,11182,027.5,045.3,0.392,734.3,01.18,0.508
2013-08-30 00:49:00,1138E-3,5C000000,-0724,0936,11142,027.5,045.3,0.392,734.3,01.18,0.508
2013-08-30 00:50:00,1168E-3,5C000000,-0724,0936,11240,027.5,045.3,0.392,734.3,01.18,0.508
2013-08-30 00:51:00,1168E-3,5C000000,-0724,0937,11197,027.5,045.3,0.391,734.3,01.18,0.508
2013-08-30 00:52:00,1199E-3,5C000000,-0724,0937,11226,027.5,045.3,0.391,734.3,01.18,0.508
2013-08-30 00:53:00,1145E-3,5C000000,-0724,0937,11159,027.5,045.3,0.392,734.3,01.18,0.508
2013-08-30 00:54:00,1142E-3,5C000000,-0724,0937,11117,027.5,045.3,0.392,734.3,01.18,0.508
2013-08-30 00:55:00,1223E-3,5C000000,-0724,0935,11117,027.5,045.3,0.392,734.3,01.18,0.508
2013-08-30 00:56:00,1349E-3,5C000000,-0724,0937,11238,027.5,045.4,0.391,734.2,01.18,0.508
2013-08-30 00:57:00,1130E-3,5C000000,-0724,0937,11133,027.5,045.3,0.391,734.2,01.18,0.508
2013-08-30 00:58:00,1195E-3,5C000000,-0724,0937,11107,027.5,045.3,0.392,734.2,01.18,0.508
2013-08-30 00:59:00,1254E-3,5C000000,-0724,0936,11115,027.5,045.3,0.392,734.2,01.18,0.508
2013-08-30 01:00:00,1313E-3,5C000000,-0724,0936,11215,027.5,045.3,0.392,734.2,01.18,0.508
2013-08-30 01:01:00,1287E-3,5C000000,-0724,0936,11223,027.5,045.3,0.392,734.2,01.18,0.508
2013-08-30 01:02:00,1291E-3,5C000000,-0724,0937,11188,027.4,045.3,0.392,734.2,01.18,0.508
2013-08-30 01:03:00,1240E-3,5C000000,-0724,0936,11091,027.4,045.3,0.392,734.2,01.18,0.508
2013-08-30 01:04:00,1305E-3,5C000000,-0724,0937,11306,027.4,045.3,0.392,734.2,01.18,0.508
2013-08-30 01:05:00,1247E-3,5C000000,-0724,0936,11222,027.4,045.3,0.392,734.2,01.18,0.508
2013-08-30 01:06:00,1257E-3,5C000000,-0724,0937,11066,027.4,045.3,0.392,734.2,01.18,0.508
2013-08-30 01:07:00,1000E-3,5C000000,-0724,0936,11044,027.4,045.3,0.392,734.2,01.18,0.508
2013-08-30 01:08:00,1221E-3,5C000000,-0724,0937,11272,027.4,045.3,0.392,734.2,01.18,0.508
2013-08-30 01:09:00,1329E-3,5C000000,-0724,0935,11180,027.4,045.3,0.392,734.2,01.18,0.508
2013-08-30 01:10:00,1445E-3,5C000000,-0724,0937,11129,027.4,045.3,0.392,734.2,01.18,0.508
2013-08-30 01:11:00,1328E-3,5C000000,-0724,0937,11085,027.4,045.3,0.392,734.2,01.18,0.508
2013-08-30 01:12:00,1417E-3,5C000000,-0724,0935,11220,027.4,045.3,0.392,734.2,01.18,0.508
2013-08-30 01:13:00,1504E-3,5C000000,-0724,0936,11182,027.3,045.3,0.392,734.2,01.18,0.508
2013-08-30 01:14:00,1557E-3,5C000000,-0724,0936,11167,027.3,045.3,0.392,734.2,01.18,0.508
2013-08-30 01:15:00,1546E-3,5C000000,-0724,0936,11101,027.3,045.3,0.392,734.2,01.18,0.508
2013-08-30 01:16:00,1350E-3,5C000000,-0724,0936,11121,027.3,045.3,0.392,734.2,01.18,0.508
2013-08-30 01:17:00,1318E-3,5C000000,-0724,0938,11007,027.3,045.3,0.392,734.2,01.18,0.508
2013-08-30 01:18:00,1359E-3,5C000000,-0724,0937,11129,027.3,045.3,0.392,734.2,01.18,0.508
2013-08-30 01:19:00,1240E-3,5C000000,-0724,0938,11132,027.3,045.3,0.392,734.2,01.18,0.508
2013-08-30 01:20:00,1418E-3,5C000000,-0724,0936,11166,027.3,045.3,0.392,734.2,01.18,0.508
2013-08-30 01:21:00,1501E-3,5C000000,-0724,0936,11136,027.3,045.3,0.392,734.2,01.18,0.508
2013-08-30 01:22:00,1401E-3,5C000000,-0724,0936,11135,027.3,045.3,0.392,734.2,01.18,0.508
2013-08-30 01:23:00,1266E-3,5C000000,-0724,0936,11137,027.3,045.3,0.392,734.2,01.18,0.508
2013-08-30 01:24:00,1165E-3,5C000000,-0724,0936,11172,027.3,045.3,0.392,734.2,01.18,0.508
2013-08-30 01:25:00,1258E-3,5C000000,-0724,0936,11128,027.3,045.3,0.392,734.2,01.18,0.508
2013-08-30 01:26:00,1244E-3,5C000000,-0724,0936,11036,027.3,045.3,0.392,734.2,01.18,0.508
2013-08-30 01:27:00,1181E-3,5C000000,-0724,0936,11191,027.3,045.3,0.392,734.2,01.18,0.508
2013-08-30 01:28:00,1135E-3,5C000000,-0724,0936,11210,027.3,045.3,0.392,734.2,01.18,0.508
2013-08-30 01:29:00,1160E-3,5C000000,-0724,0936,11236,027.3,045.3,0.392,734.2,01.18,0.508
2013-08-30 01:30:00,1163E-3,5C000000,-0724,0937,11109,027.3,045.3,0.392,734.2,01.18,0.508
2013-08-30 01:31:00,1236E-3,5C000000,-0724,0937,11165,027.3,045.3,0.392,734.2,01.18,0.508
2013-08-30 01:32:00,1190E-3,5C000000,-0724,0937,11230,027.3,045.3,0.392,734.2,01.18,0.508
2013-08-30 01:33:00,1199E-3,5C000000,-0724,0936,11099,027.3,045.3,0.393,734.2,01.18,0.508
2013-08-30 01:34:00,1163E-3,5C000000,-0724,0936,11200,027.3,045.3,0.392,734.2,01.18,0.508
2013-08-30 01:35:00,1280E-3,5C000000,-0724,0936,11186,027.3,045.3,0.392,734.2,01.18,0.508
2013-08-30 01:36:00,1221E-3,5C000000,-0724,0936,11206,027.3,045.3,0.392,734.2,01.18,0.508
2013-08-30 01:37:00,9808E-4,5C000000,-0724,0937,11148,027.3,045.3,0.392,734.2,01.18,0.508
2013-08-30 01:38:00,1088E-3,5C000000,-0724,0937,11147,027.3,045.3,0.392,734.1,01.19,0.508
2013-08-30 01:39:00,1042E-3,5C000000,-0724,0936,11208,027.3,045.3,0.393,734.1,01.19,0.508
2013-08-30 01:40:00,1186E-3,5C000000,-0724,0936,11071,027.3,045.3,0.393,734.1,01.19,0.508
2013-08-30 01:41:00,1106E-3,5C000000,-0724,0937,11130,027.3,045.3,0.392,734.1,01.19,0.508
2013-08-30 01:42:00,1246E-3,5C000000,-0724,0937,11137,027.3,045.3,0.392,734.1,01.19,0.508
2013-08-30 01:43:00,1183E-3,5C000000,-0724,0936,11072,027.3,045.3,0.392,734.1,01.19,0.508
2013-08-30 01:44:00,1186E-3,5C000000,-0724,0937,11140,027.4,045.3,0.392,734.1,01.19,0.508
2013-08-30 01:45:00,1250E-3,5C000000,-0724,0936,11199,027.4,045.3,0.392,734.1,01.19,0.508
2013-08-30 01:46:00,1114E-3,5C000000,-0724,0938,11046,027.4,045.3,0.392,734.1,01.19,0.508
2013-08-30 01:47:00,1415E-3,5C000000,-0724,0936,11182,027.4,045.3,0.392,734.1,01.19,0.508
2013-08-30 01:48:00,1279E-3,5C000000,-0724,0937,11206,027.4,045.3,0.392,734.1,01.19,0.508
2013-08-30 01:49:00,1281E-3,5C000000,-0724,0936,11219,027.5,045.3,0.392,734.1,01.19,0.508
2013-08-30 01:50:00,1324E-3,5C000000,-0724,0937,11134,027.5,045.3,0.392,734.1,01.19,0.508
2013-08-30 01:51:00,1443E-3,5C000000,-0724,0935,11114,027.5,045.3,0.392,734.1,01.19,0.508
2013-08-30 01:52:00,1341E-3,5C000000,-0724,0936,11252,027.5,045.3,0.392,734.1,01.19,0.508
2013-08-30 01:53:00,1564E-3,5C000000,-0724,0937,10988,027.5,045.3,0.391,734.0,01.19,0.508
2013-08-30 01:54:00,1395E-3,5C000000,-0724,0937,11173,027.6,045.3,0.391,734.0,01.19,0.508
2013-08-30 01:55:00,1265E-3,5C000000,-0724,0936,11212,027.6,045.4,0.391,734.0,01.19,0.508
2013-08-30 01:56:00,1317E-3,5C000000,-0724,0938,11172,027.6,045.4,0.391,734.0,01.19,0.508
2013-08-30 01:57:00,1283E-3,5C000000,-0724,0937,11198,027.6,045.3,0.391,734.0,01.19,0.508
2013-08-30 01:58:00,1390E-3,5C000000,-0724,0937,11138,027.7,045.3,0.391,734.0,01.19,0.508
2013-08-30 01:59:00,1348E-3,5C000000,-0724,0936,11176,027.7,045.3,0.391,733.9,01.19,0.508
2013-08-30 02:00:00,1205E-3,5C000000,-0724,0937,11232,027.7,045.3,0.391,733.9,01.19,0.508
2013-08-30 02:01:00,1401E-3,5C000000,-0724,0937,11216,027.7,045.3,0.392,733.9,01.19,0.508
2013-08-30 02:02:00,1509E-3,5C000000,-0724,0937,11033,027.8,045.4,0.392,733.9,01.19,0.508
2013-08-30 02:03:00,1379E-3,5C000000,-0724,0937,11213,027.8,045.3,0.391,733.9,01.19,0.508
2013-08-30 02:04:00,1241E-3,5C000000,-0724,0937,11177,027.8,045.4,0.391,733.9,01.19,0.508
2013-08-30 02:05:00,1372E-3,5C000000,-0724,0937,11179,027.9,045.4,0.391,733.9,01.19,0.508
2013-08-30 02:06:00,1239E-3,5C000000,-0724,0937,11218,027.9,045.3,0.391,733.9,01.19,0.508
2013-08-30 02:07:00,1291E-3,5C000000,-0724,0937,11177,027.9,045.4,0.390,733.9,01.19,0.508
2013-08-30 02:08:00,1210E-3,5C000000,-0724,0937,10899,027.9,045.4,0.390,733.9,01.19,0.508
2013-08-30 02:09:00,1359E-3,5C000000,-0724,0937,11120,027.9,045.3,0.391,733.9,01.19,0.508
2013-08-30 02:10:00,1280E-3,5C000000,-0724,0937,11080,028.0,045.3,0.391,733.9,01.19,0.508
2013-08-30 02:11:00,1369E-3,5C000000,-0724,0938,11142,028.0,045.3,0.391,733.9,01.19,0.508
2013-08-30 02:12:00,1336E-3,5C000000,-0724,0937,11113,028.0,045.3,0.391,733.8,01.19,0.508
2013-08-30 02:13:00,1464E-3,5C000000,-0724,0937,11177,028.0,045.4,0.391,733.8,01.19,0.508
2013-08-30 02:14:00,1316E-3,5C000000,-0724,0936,11001,028.1,045.4,0.391,733.8,01.19,0.508
2013-08-30 02:15:00,1255E-3,5C000000,-0724,0938,11033,028.1,045.4,0.390,733.8,01.19,0.508
2013-08-30 02:16:00,1202E-3,5C000000,-0724,0937,11157,028.1,045.4,0.390,733.8,01.19,0.508
2013-08-30 02:17:00,1244E-3,5C000000,-0724,0938,11178,028.1,045.4,0.390,733.8,01.19,0.508
2013-08-30 02:18:00,1235E-3,5C000000,-0724,0938,11240,028.1,045.3,0.391,733.8,01.19,0.508
2013-08-30 02:19:00,1347E-3,5C000000,-0724,0937,11126,028.1,045.4,0.391,733.8,01.19,0.508
2013-08-30 02:20:00,1163E-3,5C000000,-0724,0937,11183,028.2,045.3,0.390,733.8,01.19,0.508
2013-08-30 02:21:00,1111E-3,5C000000,-0724,0938,11234,028.2,045.4,0.390,733.8,01.19,0.508
2013-08-30 02:22:00,1010E-3,5C000000,-0724,0937,11100,028.2,045.3,0.390,733.7,01.19,0.508
2013-08-30 02:23:00,1143E-3,5C000000,-0724,0937,11154,028.2,045.4,0.390,733.7,01.19,0.508
2013-08-30 02:24:00,1294E-3,5C000000,-0724,0937,11078,028.2,045.4,0.390,733.7,01.19,0.508
2013-08-30 02:25:00,1502E-3,5C000000,-0724,0937,11134,028.3,045.4,0.390,733.7,01.19,0.508
2013-08-30 02:26:00,1651E-3,5C000000,-0724,0938,11057,028.3,045.4,0.390,733.7,01.19,0.508
2013-08-30 02:27:00,1616E-3,5C000000,-0724,0939,11145,028.3,045.4,0.390,733.7,01.19,0.508
2013-08-30 02:28:00,1880E-3,5C000000,-0724,0938,11160,028.3,045.4,0.390,733.7,01.19,0.508
2013-08-30 02:29:00,1934E-3,5C000000,-0724,0938,11200,028.3,045.3,0.390,733.6,01.19,0.508
2013-08-30 02:30:00,1611E-3,5C000000,-0724,0937,11207,028.4,045.4,0.389,733.6,01.19,0.508
2013-08-30 02:31:00,1505E-3,5C000000,-0724,0937,11101,028.4,045.4,0.390,733.6,01.19,0.508
2013-08-30 02:32:00,1570E-3,5C000000,-0724,0938,11155,028.4,045.4,0.390,733.6,01.19,0.508
2013-08-30 02:33:00,1482E-3,5C000000,-0724,0937,11085,028.4,045.4,0.390,733.6,01.19,0.508
2013-08-30 02:34:00,1795E-3,5C000000,-0724,0938,11078,028.4,045.4,0.390,733.6,01.19,0.508
2013-08-30 02:35:00,1882E-3,5C000000,-0724,0937,11159,028.4,045.4,0.389,733.6,01.19,0.508
2013-08-30 02:36:00,1597E-3,5C000000,-0724,0938,11210,028.4,045.4,0.390,733.6,01.19,0.508
2013-08-30 02:37:00,1797E-3,5C000000,-0724,0938,11097,028.4,045.4,0.390,733.6,01.19,0.508
2013-08-30 02:38:00,1879E-3,5C000000,-0724,0937,11072,028.4,045.4,0.390,733.6,01.19,0.508
2013-08-30 02:39:00,2093E-3,5C000000,-0724,0938,11158,028.4,045.4,0.389,733.6,01.19,0.508
2013-08-30 02:40:00,2102E-3,5C000000,-0724,0938,11216,028.4,045.3,0.390,733.6,01.19,0.508
2013-08-30 02:41:00,2028E-3,5C000000,-0724,0938,11052,028.4,045.4,0.390,733.6,01.19,0.508
2013-08-30 02:42:00,1858E-3,5C000000,-0724,0939,11162,028.4,045.4,0.390,733.6,01.19,0.508
2013-08-30 02:43:00,1525E-3,5C000000,-0724,0938,11153,028.4,045.3,0.389,733.6,01.19,0.508
2013-08-30 02:44:00,1641E-3,5C000000,-0724,0937,11182,028.4,045.4,0.390,733.6,01.19,0.508
2013-08-30 02:45:00,1575E-3,5C000000,-0724,0937,11102,028.4,045.4,0.390,733.6,01.19,0.508
2013-08-30 02:46:00,1705E-3,5C000000,-0724,0938,11177,028.3,045.4,0.390,733.6,01.19,0.508
2013-08-30 02:47:00,1905E-3,5C000000,-0724,0938,11222,028.3,045.4,0.390,733.6,01.19,0.508
2013-08-30 02:48:00,1993E-3,5C000000,-0724,0937,11162,028.3,045.4,0.390,733.6,01.19,0.508
2013-08-30 02:49:00,1766E-3,5C000000,-0724,0938,11072,028.3,045.4,0.390,733.6,01.19,0.508
2013-08-30 02:50:00,1599E-3,5C000000,-0724,0938,11272,028.3,045.4,0.390,733.5,01.19,0.508
2013-08-30 02:51:00,1564E-3,5C000000,-0724,0938,10932,028.3,045.4,0.390,733.5,01.19,0.508
2013-08-30 02:52:00,1397E-3,5C000000,-0724,0937,11132,028.2,045.3,0.390,733.5,01.19,0.508
2013-08-30 02:53:00,1411E-3,5C000000,-0724,0937,11121,028.2,045.4,0.390,733.6,01.19,0.508
2013-08-30 02:54:00,1448E-3,5C000000,-0724,0938,11110,028.2,045.3,0.390,733.5,01.19,0.508
2013-08-30 02:55:00,1460E-3,5C000000,-0724,0937,11121,028.2,045.4,0.390,733.5,01.19,0.508
2013-08-30 02:56:00,1600E-3,5C000000,-0724,0938,11169,028.2,045.4,0.390,733.5,01.19,0.508
2013-08-30 02:57:00,1765E-3,5C000000,-0724,0938,11101,028.2,045.4,0.390,733.5,01.19,0.508
2013-08-30 02:58:00,1931E-3,5C000000,-0724,0936,11181,028.2,045.3,0.390,733.5,01.19,0.508
2013-08-30 02:59:00,1831E-3,5C000000,-0724,0936,11152,028.2,045.3,0.390,733.5,01.19,0.508
2013-08-30 03:00:00,1925E-3,5C000000,-0724,0937,11084,028.3,045.3,0.390,733.5,01.19,0.508
2013-08-30 03:01:00,1878E-3,5C000000,-0724,0937,11212,028.3,045.4,0.390,733.5,01.19,0.508
2013-08-30 03:02:00,1874E-3,5C000000,-0724,0937,11082,028.3,045.4,0.390,733.5,01.19,0.508
2013-08-30 03:03:00,2157E-3,5C000000,-0724,0937,11149,028.3,045.4,0.390,733.5,01.19,0.508
2013-08-30 03:04:00,2201E-3,5C000000,-0724,0938,11076,028.4,045.4,0.390,733.5,01.19,0.508
2013-08-30 03:05:00,1773E-3,5C000000,-0724,0937,11227,028.4,045.4,0.390,733.5,01.19,0.508
2013-08-30 03:06:00,1716E-3,5C000000,-0724,0938,11216,028.4,045.3,0.389,733.4,01.19,0.508
2013-08-30 03:07:00,1764E-3,5C000000,-0724,0938,11136,028.4,045.4,0.390,733.4,01.19,0.508
2013-08-30 03:08:00,1675E-3,5C000000,-0724,0937,11097,028.4,045.4,0.390,733.4,01.19,0.508
2013-08-30 03:09:00,1651E-3,5C000000,-0724,0938,11021,028.4,045.4,0.390,733.4,01.19,0.508
2013-08-30 03:10:00,1805E-3,5C000000,-0724,0938,11106,028.5,045.4,0.390,733.4,01.19,0.508
2013-08-30 03:11:00,1825E-3,5C000000,-0724,0938,11155,028.5,045.4,0.390,733.4,01.19,0.508
2013-08-30 03:12:00,1757E-3,5C000000,-0724,0938,11125,028.5,045.3,0.389,733.4,01.19,0.508
2013-08-30 03:13:00,1793E-3,5C000000,-0724,0937,11174,028.5,045.4,0.389,733.4,01.19,0.508
2013-08-30 03:14:00,1758E-3,5C000000,-0724,0938,11178,028.5,045.4,0.389,733.4,01.19,0.508
2013-08-30 03:15:00,1734E-3,5C000000,-0724,0938,11092,028.5,045.4,0.390,733.4,01.19,0.508
2013-08-30 03:16:00,1915E-3,5C000000,-0724,0937,11134,028.5,045.4,0.390,733.4,01.19,0.508
2013-08-30 03:17:00,1884E-3,5C000000,-0724,0938,11123,028.6,045.4,0.390,733.4,01.19,0.508
2013-08-30 03:18:00,1914E-3,5C000000,-0724,0938,11128,028.6,045.4,0.389,733.5,01.19,0.508
2013-08-30 03:19:00,1604E-3,5C000000,-0724,0938,11263,028.6,045.4,0.389,733.5,01.19,0.508
2013-08-30 03:20:00,1596E-3,5C000000,-0724,0938,11142,028.6,045.4,0.389,733.5,01.19,0.508
2013-08-30 03:21:00,1685E-3,5C000000,-0724,0938,11328,028.6,045.4,0.390,733.5,01.19,0.508
2013-08-30 03:22:00,1751E-3,5C000000,-0724,0937,11262,028.6,045.4,0.390,733.5,01.19,0.508
2013-08-30 03:23:00,1713E-3,5C000000,-0724,0938,11267,028.6,045.4,0.390,733.5,01.19,0.508
2013-08-30 03:24:00,2039E-3,5C000000,-0724,0938,11178,028.7,045.4,0.389,733.5,01.19,0.508
2013-08-30 03:25:00,1931E-3,5C000000,-0724,0939,11155,028.7,045.4,0.389,733.5,01.19,0.508
2013-08-30 03:26:00,1791E-3,5C000000,-0724,0938,11268,028.7,045.4,0.389,733.5,01.19,0.508
2013-08-30 03:27:00,1621E-3,5C000000,-0724,0938,11187,028.7,045.4,0.390,733.5,01.19,0.508
2013-08-30 03:28:00,1560E-3,5C000000,-0724,0939,11088,028.7,045.4,0.389,733.5,01.19,0.508
2013-08-30 03:29:00,1436E-3,5C000000,-0724,0938,11134,028.7,045.4,0.389,733.5,01.19,0.508
2013-08-30 03:30:00,1336E-3,5C000000,-0724,0938,11122,028.7,045.4,0.389,733.5,01.19,0.508
2013-08-30 03:31:00,1502E-3,5C000000,-0724,0938,11062,028.7,045.4,0.390,733.5,01.19,0.508
2013-08-30 03:32:00,1486E-3,5C000000,-0724,0938,11121,028.7,045.4,0.389,733.5,01.19,0.508
2013-08-30 03:33:00,1475E-3,5C000000,-0724,0938,11029,028.7,045.4,0.389,733.5,01.19,0.508
2013-08-30 03:34:00,1365E-3,5C000000,-0724,0938,11186,028.7,045.4,0.389,733.5,01.19,0.508
2013-08-30 03:35:00,1217E-3,5C000000,-0724,0938,11213,028.7,045.4,0.389,733.4,01.19,0.508
2013-08-30 03:36:00,1280E-3,5C000000,-0724,0938,10958,028.7,045.4,0.389,733.4,01.19,0.508
2013-08-30 03:37:00,1261E-3,5C000000,-0724,0938,11186,028.7,045.4,0.389,733.4,01.19,0.508
2013-08-30 03:38:00,1195E-3,5C000000,-0724,0938,11096,028.7,045.4,0.389,733.4,01.19,0.508
2013-08-30 03:39:00,1314E-3,5C000000,-0724,0938,11319,028.7,045.4,0.389,733.4,01.19,0.508
2013-08-30 03:40:00,1136E-3,5C000000,-0724,0938,11263,028.7,045.4,0.389,733.4,01.19,0.508
2013-08-30 03:41:00,1041E-3,5C000000,-0724,0938,11090,028.7,045.4,0.389,733.4,01.19,0.508
2013-08-30 03:42:00,1054E-3,5C000000,-0724,0938,11006,028.6,045.4,0.389,733.3,01.19,0.508
2013-08-30 03:43:00,1286E-3,5C000000,-0724,0938,11059,028.7,045.4,0.390,733.3,01.19,0.508
2013-08-30 03:44:00,9316E-4,5C000000,-0724,0938,11090,028.6,045.4,0.389,733.3,01.19,0.508
2013-08-30 03:45:00,8652E-4,5C000000,-0724,0938,11115,028.6,045.4,0.389,733.3,01.19,0.508
2013-08-30 03:46:00,8655E-4,5C000000,-0724,0938,10948,028.6,045.4,0.390,733.3,01.19,0.508
2013-08-30 03:47:00,9320E-4,5C000000,-0724,0937,11164,028.6,045.4,0.389,733.3,01.19,0.508
2013-08-30 03:48:00,9665E-4,5C000000,-0724,0937,11150,028.6,045.4,0.389,733.3,01.19,0.508
2013-08-30 03:49:00,1097E-3,5C000000,-0724,0938,11182,028.6,045.4,0.389,733.3,01.19,0.508
2013-08-30 03:50:00,1233E-3,5C000000,-0724,0937,11138,028.6,045.4,0.390,733.3,01.19,0.508
2013-08-30 03:51:00,1032E-3,5C000000,-0724,0938,11145,028.5,045.4,0.390,733.3,01.19,0.508
2013-08-30 03:52:00,8419E-4,5C000000,-0724,0938,11298,028.5,045.4,0.389,733.3,01.19,0.508
2013-08-30 03:53:00,9508E-4,5C000000,-0724,0938,11271,028.5,045.4,0.389,733.3,01.19,0.508
2013-08-30 03:54:00,9614E-4,5C000000,-0724,0938,11172,028.5,045.4,0.390,733.3,01.19,0.508
2013-08-30 03:55:00,7441E-4,5C000000,-0724,0938,11005,028.5,045.4,0.390,733.3,01.19,0.508
2013-08-30 03:56:00,7470E-4,5C000000,-0724,0938,11161,028.5,045.4,0.389,733.3,01.19,0.508
2013-08-30 03:57:00,7543E-4,5C000000,-0724,0938,11039,028.5,045.4,0.389,733.3,01.19,0.508
2013-08-30 03:58:00,4915E-4,5C000000,-0724,0938,11109,028.5,045.4,0.390,733.3,01.19,0.508
2013-08-30 03:59:00,5928E-4,5C000000,-0724,0937,11071,028.5,045.4,0.390,733.3,01.19,0.508
2013-08-30 04:00:00,4824E-4,5C000000,-0724,0937,11185,028.5,045.4,0.389,733.3,01.19,0.508
2013-08-30 04:01:00,5781E-4,5C000000,-0724,0937,11098,028.5,045.4,0.389,733.3,01.19,0.508
2013-08-30 04:02:00,5103E-4,5C000000,-0724,0938,11119,028.5,045.4,0.389,733.3,01.19,0.508
2013-08-30 04:03:00,5601E-4,5C000000,-0724,0937,11047,028.5,045.4,0.389,733.3,01.19,0.508
2013-08-30 04:04:00,3798E-4,5C000000,-0724,0938,11235,028.6,045.4,0.390,733.3,01.19,0.508
2013-08-30 04:05:00,3256E-4,5C000000,-0724,0939,11067,028.6,045.4,0.390,733.3,01.19,0.508
2013-08-30 04:06:00,4191E-4,5C000000,-0724,0939,11107,028.6,045.4,0.389,733.3,01.19,0.508
2013-08-30 04:07:00,4838E-4,5C000000,-0724,0938,11160,028.6,045.4,0.389,733.2,01.19,0.508
2013-08-30 04:08:00,4010E-4,5C000000,-0724,0938,11152,028.6,045.4,0.389,733.2,01.19,0.508
2013-08-30 04:09:00,3995E-4,5C000000,-0724,0937,11255,028.6,045.4,0.389,733.2,01.19,0.508
2013-08-30 04:10:00,4475E-4,5C000000,-0724,0938,11205,028.7,045.4,0.389,733.2,01.19,0.508
2013-08-30 04:11:00,5220E-4,5C000000,-0724,0938,11135,028.7,045.4,0.390,733.2,01.19,0.508
2013-08-30 04:12:00,4909E-4,5C000000,-0724,0938,11248,028.7,045.4,0.389,733.2,01.19,0.508
2013-08-30 04:13:00,6739E-4,5C000000,-0724,0939,11145,028.7,045.4,0.389,733.2,01.19,0.508
2013-08-30 04:14:00,4145E-4,5C000000,-0724,0938,11258,028.7,045.4,0.389,733.2,01.19,0.508
2013-08-30 04:15:00,4500E-4,5C000000,-0724,0938,10979,028.7,045.4,0.389,733.2,01.19,0.508
2013-08-30 04:16:00,3912E-4,5C000000,-0724,0938,11151,028.8,045.4,0.389,733.2,01.19,0.508
2013-08-30 04:17:00,3392E-4,5C000000,-0724,0938,11265,028.8,045.4,0.389,733.2,01.19,0.508
2013-08-30 04:18:00,3580E-4,5C000000,-0724,0937,11213,028.8,045.4,0.389,733.2,01.19,0.508
2013-08-30 04:19:00,3221E-4,5C000000,-0724,0938,11112,028.8,045.4,0.389,733.2,01.19,0.508
2013-08-30 04:20:00,3348E-4,5C000000,-0724,0938,11145,028.8,045.4,0.388,733.2,01.19,0.508